Tracking 20623 objects as of 3-Apr-2020
HD Live streaming from Space Station
objects crossing your sky now

SL-8 DEB

Track SL-8 DEB now!
10-day predictions


NORAD ID: 19831
Int'l Code: 1989-005C
Perigee: 713.2 km
Apogee: 733.2 km
Inclination: 74.1 °
Period: 99.1 minutes
Semi major axis: 7094 km
RCS: 0.0065 m2 (small)
Launch date: January 26, 1989
Source: Commonwealth of Independent States (former USSR) (CIS)
Launch site: PLESETSK MISSILE AND SPACE COMPLEX (PKMTR)

Note: This is SATELLITE DEBRIS
aabbcc
Your satellite tracking list
Your tracking list is empty




NASA's NSSDC Master Catalog

Two Line Element Set (TLE):
1 19831U 89005C   20094.12069667  .00000217  00000-0  59404-4 0  9992
2 19831  74.0678 144.2895 0014135  17.4646  16.1303 14.52940182642823
Source of the keplerian elements: AFSPC